If you wish to contribute or participate in the discussions about articles you are invited to join SKYbrary as a registered user

 Actions

Angel Albino Corzo International Airport

From SKYbrary Wiki

MMTG
Airport
ICAO: MMTG – IATA: TGZ
Summary
Name Angel Albino Corzo International Airport
Region South America and Caribbean
Territory Mexico MX.gif
Location Chiapa de Corzo, Chiapas
Serving Tuxtla Gutierrez
Elevation 456.895 m <br />1,499 ft <br />1,499 ft456.895 m <br />
Type medium airport
Coordinates 16° 33' 42.56" N, 93° 1' 33.89" W
Runways
Designator Length Width Surface ROPS
9/27 0 m0 ft <br /> 0 m0 ft <br /> UNK /
14/32 2500 m8,202.1 ft <br /> 45 m147.638 ft <br /> ASP /
16/34 0 m0 ft <br /> 0 m0 ft <br /> UNK /


METAR
Observation MMTG 150051Z 33008KT 10SM SKC 28/21 A2983 RMK TCU AC SE
Station Tuxtla Gutierrez, Chis.
Date/Time 15 October 2021 00:51:00
Wind direction 330°
Wind speed 08 kts
Lowest cloud amount n/a
Temperature 28°C
Dew point 21°C
Humidity 65%
QNH hPa
Weather condition n/a

Ángel Albino Corzo International Airport, also known as Tuxtla Gutierrez International Airport, is an international airport serving the Mexican municipality of Chiapa de Corzo, Chiapas.

Climatology

Tropical savannah climate (Köppen climate classification Aw)

Maps

Terrain

Loading map...

Airport Layout

Loading map...


Accidents & Serious Incidents at or in vicinity of MMTG

None on SKYbrary